Terug naar catalogus

OPS 4682 DEB

ActiefPO
NORAD 17666·DEBRIS·🇺🇸 United States

Gelanceerd Apr 3, 1965 vanaf Vandenberg Space Force Base

Loading…

Volgende Passages (komende 24 uur)

TLE

VersSource: Space-Track

Epoch: Sep 14, 2026, 06:55 UTC

1 17666U 65027V   26257.28822664  .00001301  00000-0  44407-2 0  9992
2 17666  90.2531  14.0333 0042243 210.5277 177.7778 12.97450917961365

Volg OPS 4682 DEB in realtime met AllMySat

Download on the App Store